FW5354 Weather Reports


Display with metric or nautical units.
time (UTC)temp
F
wind
direction
speed
MPH
gust
MPH
rain 1hr
in
rain 24hr
in
rain mn
in
humidity
%
barometer
mb
20260504050018 65 100 0.0 0.0 0.00 0.00 0.00 68 1016.1
20260504044523 65 100 0.0 0.0 0.00 0.00 0.00 66 1016.1
20260504043016 66 100 0.0 1.0 0.00 0.00 0.00 64 1016.2
20260504041511 67 104 0.0 1.0 0.00 0.00 0.00 62 1016.3
20260504040010 67 105 1.0 4.0 0.00 0.00 0.00 61 1016.2
20260504034508 68 109 0.0 0.0 0.00 0.00 0.00 60 1016.3
20260504033007 68 99 0.0 0.0 0.00 0.00 0.00 59 1016.4
20260504031504 68 101 0.0 3.0 0.00 0.00 0.00 58 1016.2
20260504030002 69 103 0.0 0.0 0.00 0.00 0.00 57 1016.1
20260504024559 69 98 0.0 0.0 0.00 0.00 0.00 56 1015.8
20260504023057 70 103 0.0 0.0 0.00 0.00 0.00 54 1015.7
20260504021554 71 103 0.0 5.0 0.00 0.00 0.00 52 1015.8
20260504020056 71 105 1.0 5.0 0.00 0.00 0.00 51 1015.6
20260504014602 72 105 1.0 3.0 0.00 0.00 0.00 50 1015.5
20260504013052 73 103 1.0 6.0 0.00 0.00 0.00 49 1015.4
20260504011550 73 102 1.0 4.0 0.00 0.00 0.00 49 1015.3
20260504010048 74 87 0.0 5.0 0.00 0.00 0.00 48 1015.2
20260504004545 75 132 0.0 0.0 0.00 0.00 0.00 46 1015.2
20260504003049 75 105 0.0 0.0 0.00 0.00 0.00 43 1015.2
20260504001542 76 103 0.0 3.0 0.00 0.00 0.00 41 1015.1
20260504000036 78 106 1.0 5.0 0.00 0.00 0.00 40 1015.2
20260503234544 79 121 0.0 0.0 0.00 0.00 0.00 35 1015.4
20260503233034 80 109 0.0 2.0 0.00 0.00 0.00 34 1015.4
20260503231535 80 104 1.0 4.0 0.00 0.00 0.00 33 1015.5
20260503230040 81 97 0.0 4.0 0.00 0.00 0.00 34 1015.5
20260503224532 81 110 1.0 3.0 0.00 0.00 0.00 33 1015.7
20260503223032 80 102 0.0 4.0 0.00 0.00 0.00 34 1015.8
20260503221532 82 103 0.0 0.0 0.00 0.00 0.00 35 1016.0
20260503220043 82 136 0.0 2.0 0.00 0.00 0.00 34 1016.2
20260503214531 82 127 0.0 2.0 0.00 0.00 0.00 33 1016.2
20260503213028 83 134 0.0 3.0 0.00 0.00 0.00 35 1016.5
20260503211525 83 102 0.0 0.0 0.00 0.00 0.00 34 1016.7
20260503210023 82 108 0.0 0.0 0.00 0.00 0.00 33 1016.9
20260503204521 84 103 1.0 5.0 0.00 0.00 0.00 33 1017.1
20260503203028 83 155 0.0 1.0 0.00 0.00 0.00 33 1017.4
20260503201519 83 104 0.0 3.0 0.00 0.00 0.00 33 1017.6
20260503200016 83 151 0.0 1.0 0.00 0.00 0.00 36 1017.9
20260503194512 83 118 0.0 2.0 0.00 0.00 0.00 34 1018.2
20260503193012 82 150 0.0 3.0 0.00 0.00 0.00 35 1018.4
20260503191512 81 131 0.0 8.0 0.00 0.00 0.00 37 1018.6
20260503190003 81 102 1.0 4.0 0.00 0.00 0.00 37 1018.9
20260503184501 82 64 1.0 5.0 0.00 0.00 0.00 34 1019.1
20260503183109 81 106 0.0 2.0 0.00 0.00 0.00 38 1019.2
20260503180056 80 103 0.0 4.0 0.00 0.00 0.00 38 1019.8
20260503174553 81 141 0.0 3.0 0.00 0.00 0.00 35 1020.1
20260503173058 80 112 0.0 4.0 0.00 0.00 0.00 41 1020.3